Location: Castillon
(43.0896°N, 0.2156°E)
Time: 13:02:43
(UTC+00:00)

NOSS 0 Rocket - Pass Details

Date: 16 June 2021
Orbit: 934 x 956 km, 70.0° (Epoch: 31 July)

Event Time Altitude Azimuth Distance (km) Brightness Sun altitude
Exits shadow 23:45:21 29° 233° (SW) 1,650 4.9 -23.4°
Maximum altitude 23:48:26 58° 300° (WNW) 1,099 4.4 -23.5°
Drops below altitude 10° 23:54:35 10° 20° (NNE) 2,686 7.2 -23.5°
Sets 23:57:12 0° 24° (NNE) 3,638 8.1 -23.5°
